Theta_e
312 313 313 313 313 313 312 312 313 314 314 313 314 316 317 319 320 315 313 312 314 318 318 318 319 321 320 319 318 317 309 309 313 316 315 317 316 320 320 319 319 319 319 319 320
311 313 314 313 313 313 313 312 311 313 313 314 313 316 318 319 322 314 316 313 316 318 319 319 319 319 319 319 320 313 308 312 312 317 316 317 318 318 318 318 319 320 320 320 320
310 313 313 313 313 313 313 312 312 313 315 315 314 315 317 318 321 315 318 318 319 319 319 320 319 319 320 318 319 316 313 313 317 319 319 317 318 319 318 316 319 319 319 320 320
312 313 314 315 315 314 314 313 313 313 316 317 317 318 319 322 318 318 318 319 318 319 318 319 318 318 315 315 317 317 317 317 318 319 318 316 317 317 318 318 318 318 318 318 319
313 314 315 316 316 316 315 313 313 313 314 316 318 318 320 325 320 319 320 320 318 318 319 318 318 318 314 315 317 317 317 319 320 319 319 319 317 316 317 318 318 318 318 318 318
313 313 315 316 316 316 316 314 313 313 314 316 317 318 318 323 319 319 320 320 319 319 318 319 319 319 317 316 316 318 318 319 319 319 319 316 316 317 319 319 319 319 319 319 318
308 313 314 315 315 317 316 314 313 313 314 315 315 315 317 320 319 319 319 320 320 320 320 319 320 319 319 315 319 319 317 316 318 319 316 318 316 316 319 320 319 319 319 319 319
307 309 314 315 315 316 317 314 314 313 313 313 314 314 319 321 319 320 319 319 319 319 319 319 319 320 320 320 319 318 316 317 316 317 319 317 316 315 319 320 319 319 319 319 320
309 307 310 314 315 317 319 319 316 315 315 315 316 319 322 323 321 318 319 320 319 319 319 320 320 320 319 317 316 313 316 316 316 317 317 318 317 316 320 319 319 320 320 320 320
307 308 307 313 315 316 319 321 321 322 317 319 322 318 320 321 319 319 319 319 319 320 319 320 320 317 314 315 318 315 315 315 315 316 315 316 316 316 319 319 318 319 320 320 320
306 308 308 308 314 316 319 320 319 321 320 319 319 322 321 321 319 320 319 318 319 319 318 318 317 318 317 314 315 316 316 315 315 315 317 317 315 317 317 318 317 319 319 320 320
306 307 308 308 315 319 320 320 321 321 318 320 320 320 321 322 320 319 319 318 318 316 316 314 315 316 316 317 318 317 315 315 316 318 318 316 318 318 318 317 318 320 320 320 320
306 307 308 308 314 320 320 320 320 320 320 319 321 321 322 321 320 319 319 319 318 317 316 316 316 318 318 318 318 317 317 316 317 318 318 317 317 317 318 318 321 321 321 320 321
307 307 308 309 312 320 320 319 319 321 320 326 324 322 321 319 318 319 319 319 318 318 318 316 316 319 317 318 317 317 317 317 317 317 317 318 318 317 318 320 320 321 320 321 322
312 307 308 308 315 319 321 321 319 324 330 330 322 320 319 318 319 319 320 318 317 318 318 317 318 318 318 319 317 316 317 317 317 317 314 316 316 316 320 321 320 318 320 319 319
316 309 309 310 316 320 319 319 319 327 332 326 319 319 318 319 319 319 319 319 318 316 317 317 319 318 318 319 318 318 317 315 314 313 316 317 317 316 320 320 320 318 318 318 318
314 314 309 309 312 320 319 321 320 328 328 320 319 318 316 316 317 317 319 318 316 317 317 317 320 319 319 319 316 315 313 315 317 316 318 316 317 315 321 319 319 318 319 320 319
315 314 312 311 313 319 318 318 324 325 326 320 319 319 316 318 318 320 319 317 317 316 317 319 321 320 319 319 318 317 314 314 321 319 318 317 318 316 320 319 320 320 320 320 320
315 315 312 317 318 317 319 317 319 323 323 321 319 317 317 319 318 318 317 318 318 318 318 318 320 319 318 318 317 317 316 313 316 316 317 317 317 317 320 318 319 320 321 321 320
313 312 320 322 320 318 315 316 318 318 318 318 318 317 317 319 319 318 318 318 320 318 316 317 318 318 319 318 317 317 315 316 313 320 320 318 318 317 318 319 318 317 319 320 320
310 309 321 322 319 317 314 314 317 318 320 317 317 316 318 319 319 320 319 319 320 319 317 317 317 318 317 318 316 315 315 315 316 318 323 323 320 315 315 315 315 315 318 318 318
303 304 319 317 315 312 312 315 319 319 317 317 315 315 318 319 320 319 319 319 318 318 318 317 315 317 318 316 317 317 318 315 314 319 317 318 321 317 316 314 315 316 318 318 318
300 305 315 315 312 312 314 316 317 318 317 317 317 317 317 316 318 318 319 319 317 317 319 317 315 314 318 313 315 317 316 316 315 315 317 323 320 316 316 314 316 315 316 317 319
301 310 315 313 314 312 311 313 314 314 315 316 316 316 316 317 316 317 319 319 316 317 317 317 313 317 319 318 315 317 317 317 315 311 317 317 317 317 314 313 314 315 320 319 319
304 312 309 308 309 308 309 312 314 315 316 315 316 318 317 318 318 317 317 315 316 315 315 314 315 316 316 317 318 319 319 319 319 318 318 317 317 316 314 314 315 317 318 318 317
308 306 304 306 309 307 307 309 310 313 312 312 313 314 314 314 314 314 314 313 313 313 313 311 313 314 315 314 316 317 317 317 317 317 317 316 317 316 315 315 315 316 315 316 316
297 295 302 306 307 306 307 308 309 310 311 312 311 310 312 312 313 313 313 313 312 313 311 312 313 311 315 313 314 314 313 313 313 313 316 318 316 314 315 315 314 315 315 317 317
Wind_Speed
14 14 13 14 14 13 10 7 6 7 8 6 4 3 5 7 9 13 10 6 5 8 10 8 5 2 4 3 4 5 4 2 4 5 7 10 8 16 15 19 9 9 8 11 8
15 14 14 13 14 13 11 8 7 7 8 7 4 2 3 7 9 14 12 11 8 8 9 12 8 7 2 3 4 3 4 6 6 4 4 5 7 10 10 19 16 20 14 12 11
16 15 14 14 14 13 11 7 6 6 7 7 6 5 8 11 4 10 12 11 10 12 13 15 15 9 4 8 4 5 6 5 5 8 9 3 2 9 5 5 16 19 23 20 17
17 15 15 15 15 13 10 6 5 4 4 6 6 6 10 7 2 6 10 11 13 13 18 12 15 7 5 4 11 2 2 2 7 9 10 8 9 9 9 16 17 20 23 20 17
18 15 15 15 16 15 12 6 3 3 2 4 6 10 13 6 2 5 6 6 9 11 15 14 16 9 4 5 12 2 5 19 18 19 19 16 11 10 16 20 17 20 20 21 19
19 15 14 14 15 16 13 6 1 2 3 4 7 10 13 3 4 5 5 4 2 6 8 8 6 11 6 5 2 7 16 21 19 26 28 8 16 7 24 24 21 23 25 22 21
20 16 13 13 14 14 12 5 2 2 4 5 9 12 14 5 4 8 9 10 8 6 8 5 9 6 7 8 5 8 8 10 7 11 4 6 6 10 30 24 25 18 8 7 5
21 18 13 11 12 12 10 5 3 6 7 9 10 13 10 5 6 8 8 9 5 5 9 11 14 10 4 5 6 5 3 4 8 8 4 2 8 10 20 22 13 9 13 14 15
23 19 16 12 10 10 8 7 6 6 7 9 9 6 8 3 8 5 6 5 9 9 9 11 11 8 2 3 5 5 2 4 7 9 4 1 7 9 19 19 20 20 20 20 19
25 22 18 12 10 8 8 10 8 9 9 10 12 8 6 2 2 1 3 4 10 11 14 8 6 1 4 4 3 5 4 4 7 7 9 7 6 7 23 23 22 23 21 21 26
27 23 19 14 9 7 5 8 12 3 7 14 18 17 25 7 9 5 7 4 6 7 3 11 4 6 9 8 6 3 3 6 7 10 4 5 8 12 16 18 20 26 31 29 24
28 25 20 14 6 5 7 9 8 17 15 19 22 24 25 21 9 9 10 4 3 5 9 7 4 7 8 5 2 4 5 7 5 4 6 9 18 15 14 12 15 21 30 34 28
29 26 21 13 5 5 10 8 9 13 7 18 10 15 17 15 16 14 15 4 1 3 6 5 8 6 2 4 4 3 2 4 7 4 3 7 10 5 10 11 7 11 16 18 23
29 27 23 12 4 2 7 10 16 15 4 6 5 5 11 9 5 12 14 7 1 3 5 6 4 7 8 7 3 4 4 5 8 7 5 4 7 8 5 7 5 10 17 2 13
29 27 22 14 3 2 8 9 11 7 3 4 4 5 9 8 3 4 18 9 7 8 3 9 7 12 9 9 5 7 4 4 5 7 2 5 2 7 5 5 7 10 16 8 5
27 25 23 14 6 4 6 9 8 5 5 3 6 6 3 7 10 5 11 9 6 5 4 10 15 5 6 8 4 3 3 6 4 3 0 6 3 5 3 5 4 7 16 13 9
29 22 21 14 4 3 5 4 4 3 5 2 2 3 2 6 5 3 5 3 3 3 6 6 5 5 3 3 7 8 7 4 5 4 5 5 5 8 2 4 4 4 19 15 14
30 24 19 12 8 2 3 5 2 4 4 3 3 4 3 5 5 3 3 2 6 5 3 4 6 5 2 2 3 4 6 5 4 3 5 5 5 5 7 7 6 3 4 4 3
31 24 17 3 9 3 2 3 6 5 3 4 4 2 3 2 4 8 5 5 4 1 3 2 5 3 1 3 3 4 5 6 4 3 1 5 5 8 5 6 5 1 3 5 10
34 26 8 11 9 7 4 6 5 5 14 2 3 2 2 4 4 5 3 3 5 6 4 4 5 3 4 3 2 4 3 5 3 4 6 5 5 6 5 3 6 6 11 14 16
24 14 5 5 9 4 3 7 6 14 14 6 6 3 4 3 4 2 5 6 2 4 4 1 3 5 3 2 5 5 3 2 2 4 4 4 6 7 6 9 9 9 15 26 31
18 6 2 7 4 2 3 5 5 8 12 7 5 8 7 4 3 4 6 4 18 6 6 3 4 4 8 7 12 7 12 5 3 7 4 4 12 7 8 9 13 16 33 37 31
23 12 8 10 2 3 8 6 6 6 6 6 4 6 6 7 3 6 5 7 17 4 3 2 2 4 8 7 4 4 3 3 3 2 6 4 6 5 11 8 21 28 39 29 10
9 4 8 10 7 5 6 5 6 11 13 10 9 12 7 6 6 5 3 3 13 8 8 3 5 8 13 10 4 11 14 11 7 3 12 15 22 14 9 11 17 29 5 6 6
3 4 5 5 3 9 5 5 13 7 6 16 7 6 5 3 2 5 3 3 3 6 2 3 5 5 9 10 11 17 20 18 20 20 14 25 22 17 11 17 22 7 7 6 8
7 8 10 12 16 11 4 4 11 8 8 13 9 11 5 4 7 7 4 4 6 3 2 1 7 4 19 12 15 23 18 18 18 23 23 24 27 14 21 10 9 4 10 15 16
9 12 6 7 5 4 5 7 16 12 10 16 17 10 6 8 9 8 10 8 8 5 6 6 3 3 25 7 10 15 13 21 18 19 16 17 19 4 5 7 12 21 9 8 10
Wind_Direction
39 37 31 25 22 21 23 23 20 21 12 8 10 21 24 41 23 7 17 27 88 44 42 40 60 359 274 267 222 210 59 302 265 4 281 336 22 359 348 2 17 17 20 3 53
33 31 26 22 19 19 17 15 5 3 5 359 3 3 344 349 351 26 51 78 87 59 25 14 11 347 296 260 281 122 115 231 209 275 284 327 13 11 2 343 341 336 340 358 11
26 25 23 18 15 13 13 10 0 357 10 29 31 351 335 340 30 39 73 60 39 20 12 10 18 315 283 305 310 207 201 199 262 296 334 329 324 338 352 322 309 307 313 316 325
21 21 19 16 12 9 5 4 358 354 13 30 32 12 342 344 116 31 76 50 30 21 18 10 29 35 34 358 347 292 210 252 319 342 328 309 312 315 291 281 287 291 295 299 302
13 13 13 12 10 6 0 357 8 348 335 347 355 353 1 342 283 52 62 58 50 22 20 26 31 9 4 325 342 79 320 334 323 310 300 295 290 282 287 287 286 283 281 278 285
9 4 3 5 7 4 360 356 0 353 347 339 339 340 345 323 340 359 6 356 111 47 11 1 1 338 321 317 6 314 321 308 306 306 292 267 281 323 280 286 281 281 279 279 264
6 357 352 355 360 3 1 359 294 288 317 327 331 332 324 282 330 324 311 328 305 296 326 320 335 334 335 325 325 299 314 319 303 308 294 289 313 254 269 280 295 289 255 240 259
4 358 344 340 351 355 4 355 317 283 285 300 313 317 287 256 270 306 322 307 289 295 288 303 302 287 248 284 328 295 71 360 293 339 287 117 266 280 267 295 254 231 229 243 253
359 357 348 330 334 344 341 339 305 294 294 298 312 322 286 266 243 316 287 254 307 322 258 287 288 255 268 64 359 11 248 292 312 290 279 216 267 280 302 315 285 271 250 245 246
355 353 349 331 325 324 328 346 326 282 274 297 276 293 252 194 345 293 245 280 304 306 294 269 240 336 18 79 238 254 275 277 288 277 342 324 283 289 317 315 303 301 292 258 247
353 351 347 335 319 326 327 353 358 349 305 268 271 258 282 283 314 267 255 292 349 291 280 313 100 230 230 205 211 241 254 268 273 302 341 268 285 298 288 295 289 295 294 279 263
352 349 347 337 315 328 339 333 339 326 293 286 267 262 262 267 283 305 221 208 22 307 329 354 280 265 220 232 293 297 297 300 291 287 331 312 294 291 283 270 288 298 286 273 267
353 347 345 340 294 312 344 3 334 331 298 301 237 233 246 232 225 263 211 163 143 285 306 209 249 327 314 293 313 299 246 277 279 295 311 297 293 273 293 290 264 322 348 269 253
355 345 344 346 311 315 40 24 341 324 35 278 193 226 216 209 257 256 223 201 145 258 276 266 278 334 327 305 135 223 228 285 304 343 304 48 290 330 285 296 258 326 351 174 231
350 345 343 334 309 303 320 335 335 327 346 203 176 194 190 192 234 213 205 180 181 213 159 243 287 295 295 262 183 231 240 270 278 253 34 315 37 274 313 329 328 329 343 35 150
344 344 335 323 241 338 333 320 314 45 264 227 155 197 170 235 252 205 185 218 249 198 219 244 264 217 238 288 188 253 3 335 328 112 87 193 197 279 306 300 323 4 13 40 64
341 336 327 308 254 296 333 351 39 154 300 59 95 50 257 240 272 272 195 189 204 300 285 296 252 309 155 41 353 35 47 336 344 1 221 298 8 244 269 247 178 101 69 67 58
336 331 316 301 182 276 4 55 194 252 288 47 12 317 235 353 290 217 200 264 287 185 257 214 322 166 26 85 240 266 158 164 259 233 256 297 238 254 216 238 260 126 111 105 82
340 334 322 210 161 151 174 97 213 235 338 5 339 276 292 24 30 29 341 241 247 99 198 247 243 291 79 96 91 293 292 210 214 245 340 225 282 315 227 256 192 209 196 257 287
342 333 333 173 176 175 97 224 238 280 293 188 204 283 264 320 20 27 273 292 342 55 52 322 306 273 345 27 302 158 245 305 355 300 251 271 235 226 245 214 184 201 225 246 250
350 335 65 169 186 204 183 231 262 285 291 198 204 224 233 250 209 256 242 322 81 354 73 128 157 271 36 218 224 311 286 246 253 225 243 244 254 226 217 221 245 239 265 289 278
358 341 310 163 295 228 207 220 305 324 354 268 177 194 203 222 256 232 229 208 302 322 291 227 187 240 237 252 257 229 262 185 180 278 262 265 266 231 272 278 282 271 300 302 288
335 302 349 354 220 293 331 317 293 350 356 330 269 208 200 204 259 226 228 279 303 24 57 293 291 331 312 328 51 182 174 185 235 234 212 262 267 296 336 330 309 300 289 285 213
322 329 319 333 32 62 350 290 318 320 301 284 285 288 228 216 200 242 260 284 336 334 339 174 195 220 259 243 240 276 275 276 246 200 286 259 281 284 290 295 293 294 169 157 185
293 277 23 318 328 330 255 263 284 321 278 334 301 238 240 256 259 253 231 287 264 290 57 117 255 221 260 282 278 274 275 271 263 261 250 279 274 281 287 291 299 283 236 195 245
333 356 334 302 301 321 8 307 295 318 338 308 319 312 328 228 210 233 244 186 209 286 270 197 269 293 280 291 282 276 274 273 267 267 264 271 280 293 300 347 355 339 298 266 260
329 318 312 271 289 305 265 322 318 348 308 343 335 334 299 303 298 266 229 205 219 194 212 212 213 116 275 278 300 283 246 247 255 260 252 262 274 39 359 351 328 336 1 6 311